Location: Alexander
(41.3564°N, 81.5960°W)
Time: 09:18:59
(UTC+00:00)

X-37B - Pass Details

Date: 24 January 2021
Orbit: 383 x 391 km, 45.0° (Epoch: 27 February)

Event Time Altitude Azimuth Distance (km) Brightness Sun altitude
Rises 22:57:43 0° 263° (W) 2,267 6.4 -5.1°
Reaches altitude 10° 22:59:48 10° 269° (W) 1,415 4.9 -5.5°
Maximum altitude 23:02:56 53° 347° (NNW) 485 1.0 -6.0°
Drops below altitude 10° 23:06:05 10° 66° (ENE) 1,422 2.7 -6.6°
Enters shadow 23:06:20 - 67° (ENE) 1,523 2.9 -6.6°
